Tracking 19709 objects as of 17-Jun-2019
HD Live streaming from Space Station
objects crossing your sky now

COSMOS 1823 DEB

Track COSMOS 1823 DEB now!
10-day predictions


NORAD ID: 29359
Int'l Code: 1987-020EA
Perigee: 1,485.4 km
Apogee: 1,532.9 km
Inclination: 73.6 °
Period: 116.0 minutes
Semi major axis: 7880 km
RCS: 0.0053 m2 (small)
Launch date: February 20, 1987
Source: Commonwealth of Independent States (former USSR) (CIS)
Launch site: PLESETSK MISSILE AND SPACE COMPLEX (PKMTR)

Note: This is SATELLITE DEBRIS
aabbcc
Your satellite tracking list
Your tracking list is empty




NASA's NSSDC Master Catalog

Two Line Element Set (TLE):
1 29359U 87020EA  19168.25396580 -.00000018  00000-0 -22475-5 0  9994
2 29359  73.6145 250.9948 0030161 296.2673  94.4390 12.41090601651699
Source of the keplerian elements: AFSPC